• In Österreich
  • Länderverzeichnis
  • Für 7 Tage
  • Wassertemperatur
  • Satellitenkarten
  • Wetterkarte
  • News
  • Widgets
  • user-avatar
    Anmelden

    Stündliche Wetter Cambridge

    Heute, 20 Januar, Samstag

    Zeit Temperatur Niederschläge Wind Luftdruck Luftfeuchtigkeit
    00:00 -1°C° 0 mm 4 m/S 754 mmHg 88%
    01:00 -1°C° 0 mm 4 m/S 753 mmHg 89%
    02:00 -1°C° 0 mm 4 m/S 753 mmHg 90%
    03:00 -1°C° 0 mm 4 m/S 752 mmHg 91%
    04:00 0°C° 0 mm 3 m/S 752 mmHg 92%
    05:00 0°C° 0 mm 3 m/S 751 mmHg 92%
    06:00 0°C° 0 mm 3 m/S 751 mmHg 92%
    07:00 +1°C° 0,3 mm 3 m/S 750 mmHg 91%
    08:00 +2°C° 0,3 mm 2 m/S 749 mmHg 91%
    09:00 +3°C° 0,3 mm 1 m/S 749 mmHg 91%
    10:00 +4°C° 0,4 mm 1 m/S 749 mmHg 90%
    11:00 +4°C° 0,4 mm 1 m/S 749 mmHg 88%
    12:00 +4°C° 0 mm 1 m/S 748 mmHg 89%
    13:00 +4°C° 0,6 mm 1 m/S 748 mmHg 90%
    14:00 +4°C° 0,6 mm 1 m/S 748 mmHg 91%
    15:00 +4°C° 0,6 mm 1 m/S 748 mmHg 92%
    16:00 +3°C° 0 mm 2 m/S 748 mmHg 92%
    17:00 +2°C° 0 mm 2 m/S 749 mmHg 92%
    18:00 +2°C° 0 mm 2 m/S 749 mmHg 93%
    19:00 0°C° 0 mm 3 m/S 751 mmHg 93%
    20:00 0°C° 0 mm 3 m/S 752 mmHg 93%
    21:00 -1°C° 0 mm 3 m/S 753 mmHg 93%
    22:00 -1°C° 0 mm 3 m/S 754 mmHg 93%
    23:00 -1°C° 0 mm 3 m/S 755 mmHg 92%

    Morgen, 21 Januar, Sonntag

    Zeit Temperatur Niederschläge Wind Luftdruck Luftfeuchtigkeit
    00:00 -1°C° 0 mm 3 m/S 756 mmHg 92%
    01:00 -1°C° 0 mm 2 m/S 756 mmHg 91%
    02:00 -1°C° 0 mm 2 m/S 757 mmHg 90%
    03:00 -1°C° 0 mm 2 m/S 758 mmHg 88%
    04:00 +1°C° 0 mm 2 m/S 758 mmHg 87%
    05:00 +2°C° 0 mm 1 m/S 758 mmHg 86%
    06:00 +2°C° 0 mm 1 m/S 759 mmHg 85%
    07:00 +2°C° 0,1 mm 1 m/S 759 mmHg 84%
    08:00 +1°C° 0,1 mm 2 m/S 759 mmHg 83%
    09:00 +1°C° 0,1 mm 2 m/S 759 mmHg 82%
    10:00 +2°C° 0,8 mm 2 m/S 758 mmHg 83%
    11:00 +1°C° 0,8 mm 3 m/S 758 mmHg 84%
    12:00 0°C° 0,8 mm 4 m/S 758 mmHg 85%
    13:00 0°C° 1,7 mm 5 m/S 757 mmHg 88%
    14:00 0°C° 1,7 mm 5 m/S 756 mmHg 92%
    15:00 -1°C° 1,7 mm 6 m/S 755 mmHg 96%
    16:00 +1°C° 1,1 mm 6 m/S 754 mmHg 97%
    17:00 +1°C° 1,1 mm 6 m/S 753 mmHg 98%
    18:00 +2°C° 1,1 mm 6 m/S 753 mmHg 99%
    19:00 +2°C° 0,6 mm 5 m/S 752 mmHg 98%
    20:00 +4°C° 0,6 mm 4 m/S 752 mmHg 98%
    21:00 +5°C° 0,6 mm 4 m/S 751 mmHg 98%
    22:00 +6°C° 0,1 mm 4 m/S 751 mmHg 98%
    23:00 +6°C° 0,1 mm 5 m/S 752 mmHg 97%

    übermorgen, 22 Januar, Montag

    Zeit Temperatur Niederschläge Wind Luftdruck Luftfeuchtigkeit
    00:00 +7°C° 0,1 mm 6 m/S 752 mmHg 97%
    01:00 +5°C° 0 mm 6 m/S 753 mmHg 96%
    02:00 +5°C° 0 mm 5 m/S 753 mmHg 95%
    03:00 +5°C° 0 mm 5 m/S 754 mmHg 94%
    04:00 +3°C° 0 mm 5 m/S 754 mmHg 94%
    05:00 +3°C° 0 mm 5 m/S 755 mmHg 93%
    06:00 +3°C° 0 mm 4 m/S 756 mmHg 93%
    07:00 +3°C° 0 mm 4 m/S 756 mmHg 93%
    08:00 +3°C° 0 mm 4 m/S 757 mmHg 93%
    09:00 +3°C° 0 mm 4 m/S 757 mmHg 94%
    10:00 +4°C° 0 mm 4 m/S 758 mmHg 92%
    11:00 +4°C° 0 mm 4 m/S 758 mmHg 90%
    12:00 +5°C° 0 mm 4 m/S 758 mmHg 88%
    13:00 +5°C° 0 mm 3 m/S 758 mmHg 88%
    14:00 +5°C° 0 mm 3 m/S 758 mmHg 88%
    15:00 +6°C° 0 mm 2 m/S 759 mmHg 89%
    16:00 +5°C° 0 mm 2 m/S 759 mmHg 90%
    17:00 +5°C° 0 mm 2 m/S 760 mmHg 91%
    18:00 +4°C° 0 mm 2 m/S 760 mmHg 93%
    19:00 +4°C° 0 mm 2 m/S 761 mmHg 93%
    20:00 +3°C° 0 mm 2 m/S 761 mmHg 93%
    21:00 +3°C° 0 mm 2 m/S 761 mmHg 94%
    22:00 +3°C° 0 mm 2 m/S 762 mmHg 94%
    23:00 +3°C° 0 mm 2 m/S 762 mmHg 94%

    23 Januar, Dienstag

    Zeit Temperatur Niederschläge Wind Luftdruck Luftfeuchtigkeit
    00:00 +2°C° 0 mm 3 m/S 762 mmHg 95%
    01:00 +2°C° 0 mm 3 m/S 762 mmHg 95%
    02:00 +2°C° 0 mm 3 m/S 762 mmHg 95%
    03:00 +2°C° 0 mm 3 m/S 762 mmHg 95%
    04:00 +2°C° 0 mm 3 m/S 761 mmHg 95%
    05:00 +3°C° 0 mm 3 m/S 761 mmHg 95%
    06:00 +3°C° 0 mm 4 m/S 761 mmHg 95%
    07:00 +4°C° 0 mm 4 m/S 761 mmHg 95%
    08:00 +3°C° 0 mm 5 m/S 760 mmHg 96%
    09:00 +5°C° 0 mm 5 m/S 760 mmHg 96%
    10:00 +5°C° 0 mm 6 m/S 760 mmHg 94%
    11:00 +7°C° 0 mm 6 m/S 760 mmHg 93%
    12:00 +9°C° 0 mm 7 m/S 760 mmHg 91%
    13:00 +9°C° 0,1 mm 6 m/S 759 mmHg 92%
    14:00 +10°C° 0,1 mm 6 m/S 758 mmHg 93%
    15:00 +10°C° 0,1 mm 6 m/S 758 mmHg 93%
    16:00 +10°C° 0 mm 6 m/S 758 mmHg 93%
    17:00 +10°C° 0 mm 6 m/S 758 mmHg 92%
    18:00 +10°C° 0 mm 6 m/S 758 mmHg 91%
    19:00 +10°C° 0 mm 7 m/S 758 mmHg 91%
    20:00 +10°C° 0 mm 7 m/S 758 mmHg 90%
    21:00 +9°C° 0 mm 7 m/S 757 mmHg 89%
    22:00 +10°C° 0 mm 7 m/S 757 mmHg 89%
    23:00 +10°C° 0 mm 8 m/S 757 mmHg 89%

    24 Januar, Mittwoch

    Zeit Temperatur Niederschläge Wind Luftdruck Luftfeuchtigkeit
    00:00 +10°C° 0 mm 8 m/S 757 mmHg 89%
    01:00 +10°C° 0 mm 8 m/S 756 mmHg 89%
    02:00 +11°C° 0 mm 8 m/S 756 mmHg 88%
    03:00 +11°C° 0 mm 9 m/S 755 mmHg 88%
    04:00 +11°C° 0 mm 9 m/S 755 mmHg 87%
    05:00 +11°C° 0 mm 9 m/S 754 mmHg 86%
    06:00 +11°C° 0 mm 10 m/S 753 mmHg 85%
    07:00 +11°C° 0,1 mm 10 m/S 753 mmHg 84%
    08:00 +12°C° 0,1 mm 11 m/S 752 mmHg 84%
    09:00 +12°C° 0,1 mm 11 m/S 752 mmHg 84%
    10:00 +11°C° 1,1 mm 11 m/S 752 mmHg 84%
    11:00 +11°C° 1,1 mm 10 m/S 752 mmHg 84%
    12:00 +11°C° 1,1 mm 10 m/S 752 mmHg 85%
    13:00 +9°C° 2,2 mm 8 m/S 752 mmHg 84%
    14:00 +8°C° 2,2 mm 6 m/S 753 mmHg 84%
    15:00 +6°C° 2,2 mm 4 m/S 753 mmHg 83%
    16:00 +6°C° 0,4 mm 4 m/S 753 mmHg 84%
    17:00 +6°C° 0,4 mm 4 m/S 753 mmHg 85%
    18:00 +6°C° 0,4 mm 4 m/S 753 mmHg 86%
    19:00 +6°C° 0,2 mm 4 m/S 753 mmHg 87%
    20:00 +6°C° 0,2 mm 4 m/S 754 mmHg 88%
    21:00 +6°C° 0,2 mm 4 m/S 754 mmHg 89%
    22:00 +6°C° 0,3 mm 4 m/S 754 mmHg 88%
    23:00 +6°C° 0,3 mm 4 m/S 754 mmHg 87%

    25 Januar, Donnerstag

    Zeit Temperatur Niederschläge Wind Luftdruck Luftfeuchtigkeit
    00:00 +6°C° 0,3 mm 4 m/S 754 mmHg 86%
    01:00 +5°C° 0 mm 4 m/S 754 mmHg 86%
    02:00 +5°C° 0 mm 4 m/S 753 mmHg 86%
    03:00 +5°C° 0 mm 4 m/S 753 mmHg 86%
    04:00 +4°C° 0 mm 4 m/S 753 mmHg 87%
    05:00 +4°C° 0 mm 4 m/S 753 mmHg 87%
    06:00 +4°C° 0 mm 4 m/S 753 mmHg 88%
    07:00 +4°C° 0 mm 4 m/S 753 mmHg 87%
    08:00 +3°C° 0 mm 5 m/S 753 mmHg 86%
    09:00 +3°C° 0 mm 5 m/S 754 mmHg 85%
    10:00 +4°C° 0 mm 6 m/S 753 mmHg 79%
    11:00 +6°C° 0 mm 7 m/S 753 mmHg 74%
    12:00 +7°C° 0 mm 8 m/S 753 mmHg 69%
    13:00 +8°C° 0 mm 7 m/S 753 mmHg 70%
    14:00 +8°C° 0 mm 7 m/S 753 mmHg 70%
    15:00 +7°C° 0 mm 6 m/S 753 mmHg 71%
    16:00 +7°C° 0,1 mm 6 m/S 753 mmHg 74%
    17:00 +5°C° 0,1 mm 6 m/S 753 mmHg 77%
    18:00 +4°C° 0,1 mm 6 m/S 753 mmHg 80%
    19:00 +5°C° 0 mm 5 m/S 754 mmHg 82%
    20:00 +3°C° 0 mm 5 m/S 754 mmHg 84%
    21:00 +3°C° 0 mm 5 m/S 755 mmHg 86%
    22:00 +2°C° 0 mm 5 m/S 755 mmHg 87%
    23:00 +3°C° 0 mm 4 m/S 756 mmHg 87%
    Mehr zeigen